NOAA NWS Hourly Roundups by Site

Regional Weather Roundup for San Diego, CA

To Select Another Site Choose from List

Select Site:  

000
ASUS46 KSGX 300210
RWRSGX

SAN DIEGO HOURLY WEATHER ROUNDUP
NATIONAL WEATHER SERVICE SAN DIEGO CA
600 PM PST SUN JAN 29 2023

NOTE: "FAIR" INDICATES FEW OR NO CLOUDS BELOW 12,000 FEET WITH NO
SIGNIFICANT WEATHER AND/OR OBSTRUCTIONS TO VISIBILITY.

CAZ042-043-060-061-PZZ750-775-300300-

GREATER SAN DIEGO AREA

CITY           SKY/WX    TMP DP  RH WIND       PRES   REMARKS
SAN DIEGO AP   CLOUDY    56  43  61 SW13G20   29.95R
BROWN FIELD    CLOUDY    50  47  89 W10       29.93R
MIRAMAR MCAS   CLOUDY    50  45  83 W9        29.92R
MONTGOMERY FLD CLOUDY    52  44  74 SW9G20    29.92S
GILLESPIE FLD  CLOUDY    54  46  76 W8        29.92S
LEMON GROVE      N/A    N/A N/A N/A CALM      29.91R

$$

NORTH SAN DIEGO COUNTY

CITY           SKY/WX    TMP DP  RH WIND       PRES   REMARKS
CAMP PENDLETON MOCLDY    53  46  77 W6        29.92R
OCEANSIDE AP   CLOUDY    52  47  83 W7        29.91R
OCEANSIDE HBR    N/A     53  49  87 N8        29.98R
VISTA            N/A     51  47  84 CALM      29.90S
CARLSBAD       CLOUDY    52  47  83 W7        29.91R
ENCINITAS        N/A     53  47  79 CALM        N/A
LA JOLLA SCRIP   N/A     53  47  81 CALM      29.92S
FALLBROOK      CLOUDY    48  45  87 SW3       29.91S
ESCONDIDO        N/A     52  46  80 CALM      29.92R
SAN MARCOS       N/A     51  46  81 SW2       29.95R
RANCHO BERNARD   N/A     51  45  78 CALM      29.91S
POWAY            N/A     51  46  80 W3        29.95R

$$

EAST SAN DIEGO COUNTY

CITY           SKY/WX    TMP DP  RH WIND       PRES   REMARKS
RAMONA         CLOUDY    48  44  86 W9        29.90R
SANTEE           N/A     52  47  83 CALM      29.89S
LA MESA          N/A     50  47  87 W8        29.88R
EL CAJON         N/A     52  47  82 E6        29.80R
ALPINE           N/A     47  44  89 SW2       30.11R
DESCANSO N       N/A     40  38  94 SW8       29.94S WCI  34

$$

ORANGE COUNTY AND THE LOS ANGELES BASIN

CITY           SKY/WX    TMP DP  RH WIND       PRES   REMARKS
JOHN WAYNE AP  MOCLDY    54  44  69 W5        29.90S
LAGUNA BEACH     N/A     52  48  86 SE1       29.90S
LAKE FOREST FR   N/A     48  43  82 W1        29.79R
SANTA ANA        N/A     53  46  77 S2        29.90R
HUNTINGTON BCH   N/A     54  47  76 CALM      29.90R
LOS ALAMITOS   CLOUDY    51  45  78 S5        29.87S
FULLERTON      MOCLDY    54  45  71 S3        29.89R HAZE
LONG BEACH     PTCLDY    56  40  55 SW7       29.90R
L.A. AP        PTCLDY    53  43  68 W9        29.89S
L.A. DOWNTOWN  CLOUDY    54  42  64 CALM      29.90R

$$

THE INLAND EMPIRE

CITY           SKY/WX    TMP DP  RH WIND       PRES   REMARKS
CORONA         CLOUDY    51  43  74 SW5       29.90S
UPLAND AP      CLOUDY    48  41  76 SW7       29.88R
CHINO          MOCLDY    50  42  74 SW5       29.90S
ONTARIO        MOCLDY    50  41  71 SW9       29.89R
SAN BERNARDINO DRIZZLE   50  39  66 W6        29.89R
RIVERSIDE AP   LGT RAIN  49  43  80 W5        29.89R
MORENO VALLEY    N/A     47  47  98 CALM      28.12S
MARCH ARB      MOCLDY    47  44  90 NW3       29.88S
HORSETHIEF CYN   N/A     47  37  67 SW3       29.88S
PERRIS           N/A     48  44  84 SE1       29.92R
LAKE ELSINORE    N/A     47  42  81 CALM      29.86R
HEMET AP       CLOUDY    46  46 100 SW7       29.89S
FRENCH VALLEY  CLOUDY    46  43  87 S5        29.90R
TEMECULA         N/A     49  47  96 CALM      29.95R

$$

SAN BERNARDINO AND RIVERSIDE COUNTY MOUNTAINS

CITY           SKY/WX    TMP DP  RH WIND       PRES   REMARKS
BIG BEAR AP    LGT SNOW  28  27  93 SW7G18    29.78R WCI  21
BIG BEAR LAKE    N/A     28  27  95 SW6       29.91R WCI  22
WRIGHTWOOD       N/A     30  24  78 CALM      30.38S
ANGELUS OAKS     N/A     31  28  90 CALM      29.82R
IDYLLWILD        N/A     32  31  95 SW3       29.84R

$$

SOUTHERN DESERT INCLUDING THE COACHELLA VALLEY

CITY           SKY/WX    TMP DP  RH WIND       PRES   REMARKS
PALM SPRINGS   MOCLDY    58  38  47 NW9       29.83R
INDIO            N/A     61  35  38 W3        29.81R
THERMAL        PTCLDY    60  34  37 NW8       29.81R
BORREGO AP     CLOUDY    55  36  47 W5G17     29.85S
OCOTILLO WELLS   N/A     58  38  48 W6        29.80S
CANEBRAKE        N/A     55  33  43 SW7       29.82R
BLYTHE         CLEAR     59  36  42 SW14      29.83R
IMPERIAL AP    CLEAR     56  39  53 W8        29.84R
EL CENTRO NAS  CLEAR     59  38  45 MISG      29.86S
YUMA AZ        CLEAR     59  38  45 S5        29.85R

$$

UPPER DESERT

CITY           SKY/WX    TMP DP  RH WIND       PRES   REMARKS
VICTORVILLE AP CLOUDY    45  32  61 S18       29.83R
HESPERIA         N/A     41  35  79 SW20      29.66R
APPLE VALLEY     N/A     43  35  73 N6        29.86R
PALMDALE       PTCLDY    44  33  65 W8G21     29.81S
LANCASTER      MOCLDY    46  34  62 SW17      29.82R
EDWARDS AFB    CLOUDY    46  37  70 SW18      29.78S
DAGGETT        CLEAR     50  35  56 SW23G31   29.77R
29 PALMS N     CLEAR     49  35  58 SW24G32   29.83R
29 PALMS JTNP    N/A     54  33  45 S3        29.73R
NEEDLES        CLOUDY    58  35  42 SE8       29.79R

$$

REGIONAL REPORTS

CITY           SKY/WX    TMP DP  RH WIND       PRES   REMARKS
SANTA BARBARA  CLOUDY    53  45  74 W8        29.86R
SANDBERG       CLOUDY    34  33  96 S17       29.79R FOG     WCI  23
LAS VEGAS NV   PTCLDY    54  26  34 S8        29.74R
PHOENIX AZ     CLEAR     62  25  24 SW7       29.83R
TIJUANA        MOCLDY    52  48  87 SW6       29.95R
ENSENADA NW      N/A     56  32  40 W7        29.89R

$$

OFFSHORE ISLANDS

CITY           SKY/WX    TMP DP  RH WIND       PRES   REMARKS
CATALINA ARPT  CLOUDY    45  42  89 SW12      29.88S
SAN CLEMENTE I PTCLDY    50  32  50 W10       29.92S
SAN NICOLAS IS   N/A    N/A N/A N/A W12       29.89S

$$

MARINE AND OFFSHORE BUOY REPORTS

STATION/POSITION SKY/WX   TEMP    WIND        PRES    VSBY  SWELL
                          AIR SEA DIR/SP/G                  HT/PER/DIR
                          (F)     (DEG/KT/KT) (MB)    (MI)  (FT/S/D)
TANNER BANKS               53     310/ 10/ 14 1011.9S         5/320/ 9
S CLEMENTE BASIN           53 59  280/ 10/ 16 1012.7R         5/270/14
SAN NICOLAS IS.               56                N/A           3/260/13
SO. S. ROSA ISLA           52 56  290/ 10/ 12 1011.4R         5/290/14
W. S. BARBARA CH           50 56  320/ 10/ 14 1010.9S         5/310/ 9
M. S. BARBARA CH           53 56  270/ 12/ 16 1010.9R         3/250/14
S. MONICA BASIN            53 58  250/ 10/ 12 1012.3R         3/260/15
S PEDRO CHANNEL               58                N/A           2/260/14
OCEANSIDE OFFSHR              58                N/A           2/200/13
TORREY PINES OTR              58                N/A           2/250/14
SAN DIEGO BAY                 58              1013.3R
IMPERIAL BEACH                57                N/A           2/260/15
POINT LOMA SOUTH              58                N/A           3/230/13

$$



 

View Past Reports for San Diego, CA.

Products Courtesy of NOAA-NWS
NWS Information Parsing Script by Ken True at Saratoga Weather - Script by SE Lincoln Weather.